This is the latest recevied weather packets stored in our database for station/object NR6G-5. If no packets are shown the sender has not sent any weather packets the latest 1 day(s).
| Time | Temp. | Humidity | Pressure | Rain* | Wind** | Luminosity | Snow |
|---|---|---|---|---|---|---|---|
| 1778073928 | 10.56° C | 91% | 1018.8 hPa | 0 mm | 0.45 m/s, 131° | - | - |
| 1778073629 | 10.56° C | 92% | 1018.7 hPa | 0 mm | 0.45 m/s, 126° | - | - |
| 1778073328 | 10.56° C | 92% | 1018.8 hPa | 0 mm | 0.45 m/s, 133° | - | - |
| 1778073028 | 10° C | 91% | 1018.8 hPa | 0 mm | 0 m/s | - | - |
| 1778072728 | 10.56° C | 91% | 1018.7 hPa | 0 mm | 0 m/s | - | - |
| 1778072428 | 10.56° C | 91% | 1018.6 hPa | 0 mm | 0 m/s | - | - |
| 1778072128 | 10.56° C | 91% | 1018.6 hPa | 0 mm | 0.45 m/s, 100° | - | - |
| 1778071829 | 10.56° C | 92% | 1018.5 hPa | 0 mm | 1.34 m/s, 96° | - | - |
| 1778071528 | 10.56° C | 91% | 1018.5 hPa | 0 mm | 0.89 m/s, 103° | - | - |
| 1778071230 | 10.56° C | 90% | 1018.4 hPa | 0 mm | 0.89 m/s, 105° | - | - |
| 1778070929 | 10.56° C | 91% | 1018.5 hPa | 0 mm | 0 m/s | - | - |
| 1778070628 | 10.56° C | 91% | 1018.4 hPa | 0 mm | 0.45 m/s, 138° | - | - |
| 1778070328 | 10.56° C | 91% | 1018.4 hPa | 0 mm | 0.89 m/s, 144° | - | - |
| 1778070029 | 11.11° C | 91% | 1018.4 hPa | 0 mm | 1.34 m/s, 153° | - | - |
| 1778069728 | 11.11° C | 91% | 1018.2 hPa | 0 mm | 1.34 m/s, 147° | - | - |
| 1778069429 | 11.11° C | 91% | 1018.2 hPa | 0 mm | 1.34 m/s, 136° | - | - |
| 1778069128 | 11.11° C | 92% | 1018.1 hPa | 0 mm | 1.34 m/s, 132° | - | - |
| 1778068830 | 11.11° C | 91% | 1018.2 hPa | 0 mm | 0.89 m/s, 142° | - | - |
| 1778068281 | 11.11° C | 91% | 1018.2 hPa | 0 mm | 0.89 m/s, 133° | - | - |
| 1778067979 | 11.11° C | 91% | 1018.2 hPa | 0 mm | 0.45 m/s, 122° | - | - |
| 1778067680 | 10.56° C | 91% | 1018.1 hPa | 0 mm | 0.89 m/s, 138° | - | - |
| 1778067381 | 10.56° C | 87% | 1018.1 hPa | 0 mm | 0.45 m/s, 195° | - | - |
| 1778067081 | 11.11° C | 87% | 1018.1 hPa | 0 mm | 0 m/s | - | - |
| 1778066782 | 11.11° C | 89% | 1018 hPa | 0 mm | 0 m/s | - | - |
| 1778066481 | 11.11° C | 88% | 1018 hPa | 0 mm | 0 m/s | - | - |
* Rain latest hour (hover to see other rain measurements)
** Current wind speed in m/s (hover to see current wind gust speed)